Simultaneous Nadir Overpasses (SNOs) Predictions

Prediction of SNOs between GOES-16 and NOAA-20 Satellite Orbit:

Table of predicted SNOs for the next 14.0 days since TLE Epoch: 3/30/2024
Index Date Time (GOES-16) GOES-16 Lat,Lon NOAA-20 Lat,Lon Distance(km) Time Diff (sec)
1 03/30/2024 18:12:28 0.03, -75.22 0.85, -71.54 419.22 80
2 04/01/2024 06:31:44 -0.03, -75.22 0.17, -76.20 111.28 80
3 04/02/2024 06:08:38 -0.02, -75.22 -0.92, -71.26 451.69 80
4 04/03/2024 18:27:58 0.02, -75.23 -0.14, -75.93 79.24 80
5 04/04/2024 18:10:12 0.01, -75.24 0.96, -70.99 484.37 80
6 04/06/2024 06:29:27 -0.01, -75.25 0.08, -75.64 45.07 80
7 04/08/2024 18:25:41 0.01, -75.28 0.01, -75.38 10.94 80
8 04/11/2024 06:24:31 -0.01, -75.32 -0.06, -75.10 25.10 80
